| time (UTC) | temp F | wind direction | speed knots | gust knots | rain 1hr in | rain 24hr in | rain mn in | humidity % | barometer mb |
| 20260503013746 | 64 | 23 | 2.6 | 2.6 | 0.00 | 0.00 | 0.00 | 36 | 1015.9 |
| 20260503013243 | 64 | 27 | 1.7 | 1.7 | 0.00 | 0.00 | 0.00 | 36 | 1016.0 |
| 20260503012741 | 65 | 24 | 2.6 | 2.6 | 0.00 | 0.00 | 0.00 | 35 | 1016.0 |
| 20260503012238 | 66 | 31 | 1.7 | 1.7 | 0.00 | 0.00 | 0.00 | 34 | 1015.9 |
| 20260503011734 | 66 | 29 | 0.9 | 1.7 | 0.00 | 0.00 | 0.00 | 34 | 1016.0 |
| 20260503011232 | 66 | 46 | 1.7 | 1.7 | 0.00 | 0.00 | 0.00 | 33 | 1016.0 |
| 20260503010727 | 66 | 0 | 1.7 | 1.7 | 0.00 | 0.00 | 0.00 | 33 | 1016.1 |
| 20260503010225 | 66 | 21 | 1.7 | 1.7 | 0.00 | 0.00 | 0.00 | 33 | 1016.0 |
| 20260503005722 | 66 | 17 | 1.7 | 1.7 | 0.00 | 0.00 | 0.00 | 33 | 1016.3 |
| 20260503005219 | 66 | 34 | 1.7 | 1.7 | 0.00 | 0.00 | 0.00 | 33 | 1016.2 |
| 20260503004715 | 67 | 23 | 1.7 | 2.6 | 0.00 | 0.00 | 0.00 | 33 | 1016.2 |
| 20260503004214 | 67 | 38 | 1.7 | 1.7 | 0.00 | 0.00 | 0.00 | 33 | 1016.1 |
| 20260503003711 | 66 | 60 | 2.6 | 2.6 | 0.00 | 0.00 | 0.00 | 33 | 1016.3 |
| 20260503003208 | 67 | 48 | 3.5 | 5.2 | 0.00 | 0.00 | 0.00 | 33 | 1016.2 |
| 20260503002704 | 66 | 98 | 0.9 | 1.7 | 0.00 | 0.00 | 0.00 | 34 | 1016.4 |
| 20260503002201 | 66 | 81 | 1.7 | 1.7 | 0.00 | 0.00 | 0.00 | 33 | 1016.3 |
| 20260503001657 | 66 | 128 | 1.7 | 1.7 | 0.00 | 0.00 | 0.00 | 34 | 1016.3 |
| 20260503001154 | 67 | 67 | 3.5 | 3.5 | 0.00 | 0.00 | 0.00 | 33 | 1016.6 |
| 20260503000652 | 67 | 85 | 5.2 | 5.2 | 0.00 | 0.00 | 0.00 | 33 | 1016.4 |
| 20260503000149 | 68 | 53 | 2.6 | 3.5 | 0.00 | 0.00 | 0.00 | 33 | 1016.6 |
| 20260502235646 | 67 | 30 | 3.5 | 3.5 | 0.00 | 0.00 | 0.00 | 33 | 1016.7 |
| 20260502235144 | 67 | 79 | 4.3 | 5.2 | 0.00 | 0.00 | 0.00 | 33 | 1016.7 |
| 20260502234640 | 68 | 48 | 0.9 | 0.9 | 0.00 | 0.00 | 0.00 | 32 | 1016.7 |
| 20260502234137 | 67 | 357 | 0.0 | 0.9 | 0.00 | 0.00 | 0.00 | 33 | 1016.8 |
| 20260502233632 | 69 | 294 | 1.7 | 2.6 | 0.00 | 0.00 | 0.00 | 32 | 1016.8 |
| 20260502233129 | 68 | 39 | 0.0 | 0.9 | 0.00 | 0.00 | 0.00 | 31 | 1017.0 |
| 20260502232625 | 67 | 92 | 1.7 | 2.6 | 0.00 | 0.00 | 0.00 | 33 | 1016.9 |
| 20260502232123 | 69 | 250 | 1.7 | 1.7 | 0.00 | 0.00 | 0.00 | 32 | 1017.2 |
| 20260502231619 | 70 | 310 | 2.6 | 2.6 | 0.00 | 0.00 | 0.00 | 31 | 1017.0 |
| 20260502231117 | 68 | 168 | 1.7 | 1.7 | 0.00 | 0.00 | 0.00 | 32 | 1017.2 |
| 20260502230615 | 68 | 319 | 2.6 | 2.6 | 0.00 | 0.00 | 0.00 | 33 | 1017.2 |
| 20260502230114 | 69 | 0 | 5.2 | 6.1 | 0.00 | 0.00 | 0.00 | 32 | 1017.2 |
| 20260502225609 | 68 | 38 | 3.5 | 3.5 | 0.00 | 0.00 | 0.00 | 32 | 1017.2 |
| 20260502225106 | 66 | 80 | 2.6 | 2.6 | 0.00 | 0.00 | 0.00 | 34 | 1017.2 |
| 20260502224602 | 67 | 152 | 3.5 | 3.5 | 0.00 | 0.00 | 0.00 | 33 | 1017.3 |
| 20260502224059 | 66 | 48 | 4.3 | 5.2 | 0.00 | 0.00 | 0.00 | 34 | 1017.4 |
| 20260502223557 | 67 | 75 | 1.7 | 2.6 | 0.00 | 0.00 | 0.00 | 34 | 1017.5 |
| 20260502223055 | 66 | 52 | 0.9 | 1.7 | 0.00 | 0.00 | 0.00 | 34 | 1017.7 |
| 20260502222552 | 67 | 34 | 0.9 | 1.7 | 0.00 | 0.00 | 0.00 | 33 | 1017.7 |
| 20260502222048 | 66 | 35 | 1.7 | 2.6 | 0.00 | 0.00 | 0.00 | 34 | 1017.7 |
| 20260502221544 | 67 | 358 | 2.6 | 3.5 | 0.00 | 0.00 | 0.00 | 34 | 1017.8 |
| 20260502221042 | 67 | 71 | 0.9 | 0.9 | 0.00 | 0.00 | 0.00 | 34 | 1018.0 |
| 20260502220537 | 68 | 5 | 2.6 | 3.5 | 0.00 | 0.00 | 0.00 | 33 | 1018.1 |
| 20260502220034 | 66 | 308 | 1.7 | 1.7 | 0.00 | 0.00 | 0.00 | 33 | 1018.2 |
| 20260502215531 | 67 | 30 | 2.6 | 2.6 | 0.00 | 0.00 | 0.00 | 34 | 1018.0 |
| 20260502215028 | 66 | 343 | 0.9 | 1.7 | 0.00 | 0.00 | 0.00 | 34 | 1018.1 |
| 20260502214525 | 66 | 58 | 3.5 | 3.5 | 0.00 | 0.00 | 0.00 | 35 | 1018.2 |
| 20260502214023 | 66 | 48 | 1.7 | 1.7 | 0.00 | 0.00 | 0.00 | 35 | 1018.4 |
| 20260502213519 | 67 | 7 | 5.2 | 6.1 | 0.00 | 0.00 | 0.00 | 35 | 1018.4 |
| 20260502213017 | 67 | 6 | 4.3 | 5.2 | 0.00 | 0.00 | 0.00 | 35 | 1018.5 |
| 20260502212516 | 67 | 184 | 0.9 | 0.9 | 0.00 | 0.00 | 0.00 | 35 | 1018.5 |
| 20260502212013 | 66 | 319 | 2.6 | 5.2 | 0.00 | 0.00 | 0.00 | 36 | 1018.5 |
| 20260502211509 | 67 | 65 | 1.7 | 2.6 | 0.00 | 0.00 | 0.00 | 35 | 1018.5 |
| 20260502211006 | 67 | 297 | 3.5 | 3.5 | 0.00 | 0.00 | 0.00 | 34 | 1018.6 |
| 20260502210503 | 67 | 250 | 3.5 | 3.5 | 0.00 | 0.00 | 0.00 | 34 | 1018.5 |
| 20260502210000 | 67 | 11 | 5.2 | 6.1 | 0.00 | 0.00 | 0.00 | 34 | 1018.6 |
| 20260502205456 | 65 | 3 | 4.3 | 6.1 | 0.00 | 0.00 | 0.00 | 36 | 1018.8 |
| 20260502204953 | 66 | 358 | 3.5 | 3.5 | 0.00 | 0.00 | 0.00 | 36 | 1018.6 |
| 20260502204450 | 67 | 13 | 4.3 | 5.2 | 0.00 | 0.00 | 0.00 | 36 | 1018.9 |
| 20260502203948 | 66 | 318 | 5.2 | 7.0 | 0.00 | 0.00 | 0.00 | 36 | 1019.0 |
| 20260502203445 | 66 | 36 | 5.2 | 7.8 | 0.00 | 0.00 | 0.00 | 35 | 1019.0 |
| 20260502202941 | 66 | 6 | 7.0 | 8.7 | 0.00 | 0.00 | 0.00 | 35 | 1019.0 |
| 20260502202438 | 66 | 15 | 7.8 | 8.7 | 0.00 | 0.00 | 0.00 | 35 | 1019.1 |
| 20260502201936 | 64 | 8 | 5.2 | 6.1 | 0.00 | 0.00 | 0.00 | 37 | 1019.2 |
| 20260502201432 | 65 | 357 | 10.4 | 11.3 | 0.00 | 0.00 | 0.00 | 36 | 1019.2 |
| 20260502200929 | 65 | 359 | 6.1 | 7.8 | 0.00 | 0.00 | 0.00 | 36 | 1019.2 |
| 20260502200424 | 65 | 337 | 7.0 | 8.7 | 0.00 | 0.00 | 0.00 | 36 | 1019.2 |
| 20260502195923 | 65 | 20 | 4.3 | 5.2 | 0.00 | 0.00 | 0.00 | 35 | 1019.1 |
| 20260502195419 | 65 | 358 | 7.0 | 7.8 | 0.00 | 0.00 | 0.00 | 35 | 1019.3 |
| 20260502194916 | 65 | 306 | 0.9 | 1.7 | 0.00 | 0.00 | 0.00 | 35 | 1019.2 |
| 20260502194413 | 67 | 337 | 4.3 | 5.2 | 0.00 | 0.00 | 0.00 | 35 | 1019.3 |
| 20260502193909 | 67 | 174 | 2.6 | 2.6 | 0.00 | 0.00 | 0.00 | 34 | 1019.2 |
| 20260502193406 | 67 | 23 | 2.6 | 2.6 | 0.00 | 0.00 | 0.00 | 34 | 1019.5 |
| 20260502192901 | 66 | 41 | 3.5 | 3.5 | 0.00 | 0.00 | 0.00 | 35 | 1019.4 |
| 20260502192359 | 67 | 24 | 1.7 | 1.7 | 0.00 | 0.00 | 0.00 | 35 | 1019.4 |
| 20260502191855 | 66 | 32 | 5.2 | 6.1 | 0.00 | 0.00 | 0.00 | 35 | 1019.6 |
| 20260502191354 | 65 | 344 | 5.2 | 6.1 | 0.00 | 0.00 | 0.00 | 35 | 1019.7 |
| 20260502190851 | 66 | 7 | 4.3 | 5.2 | 0.00 | 0.00 | 0.00 | 35 | 1019.7 |
| 20260502190348 | 64 | 3 | 7.0 | 7.8 | 0.00 | 0.00 | 0.00 | 37 | 1019.7 |
| 20260502185844 | 66 | 311 | 5.2 | 7.0 | 0.00 | 0.00 | 0.00 | 37 | 1019.9 |
| 20260502185339 | 67 | 6 | 1.7 | 3.5 | 0.00 | 0.00 | 0.00 | 35 | 1019.7 |
| 20260502184837 | 66 | 30 | 0.9 | 0.9 | 0.00 | 0.00 | 0.00 | 35 | 1019.9 |
| 20260502184332 | 65 | 81 | 3.5 | 5.2 | 0.00 | 0.00 | 0.00 | 36 | 1019.9 |
| 20260502183829 | 65 | 61 | 7.0 | 8.7 | 0.00 | 0.00 | 0.00 | 36 | 1020.0 |
| 20260502183325 | 65 | 6 | 5.2 | 7.0 | 0.00 | 0.00 | 0.00 | 36 | 1020.0 |
| 20260502182820 | 65 | 340 | 6.1 | 7.8 | 0.00 | 0.00 | 0.00 | 36 | 1020.2 |
| 20260502182316 | 63 | 351 | 3.5 | 3.5 | 0.00 | 0.00 | 0.00 | 37 | 1020.1 |
| 20260502181813 | 64 | 331 | 4.3 | 5.2 | 0.00 | 0.00 | 0.00 | 37 | 1020.2 |
| 20260502181311 | 63 | 340 | 8.7 | 9.6 | 0.00 | 0.00 | 0.00 | 38 | 1020.4 |
| 20260502180809 | 62 | 350 | 5.2 | 7.0 | 0.00 | 0.00 | 0.00 | 39 | 1020.2 |
| 20260502180306 | 62 | 22 | 6.1 | 7.0 | 0.00 | 0.00 | 0.00 | 39 | 1020.4 |
| 20260502170225 | 64 | 10 | 5.2 | 7.0 | 0.00 | 0.00 | 0.00 | 37 | 1020.6 |
| 20260502164212 | 64 | 359 | 7.8 | 7.8 | 0.00 | 0.00 | 0.00 | 39 | 1020.5 |
| 20260502163708 | 63 | 10 | 7.8 | 8.7 | 0.00 | 0.00 | 0.00 | 39 | 1020.5 |
| 20260502163205 | 62 | 15 | 5.2 | 6.1 | 0.00 | 0.00 | 0.00 | 39 | 1020.5 |
| 20260502162701 | 62 | 347 | 7.0 | 7.8 | 0.00 | 0.00 | 0.00 | 39 | 1020.4 |
| 20260502162158 | 61 | 356 | 7.0 | 7.0 | 0.00 | 0.00 | 0.00 | 39 | 1020.7 |
| 20260502161655 | 61 | 11 | 6.1 | 7.0 | 0.00 | 0.00 | 0.00 | 39 | 1020.7 |
| 20260502161152 | 61 | 23 | 3.5 | 5.2 | 0.00 | 0.00 | 0.00 | 41 | 1020.6 |
| 20260502160650 | 60 | 61 | 4.3 | 5.2 | 0.00 | 0.00 | 0.00 | 40 | 1020.7 |
| 20260502160149 | 60 | 27 | 5.2 | 6.1 | 0.00 | 0.00 | 0.00 | 40 | 1020.8 |
| 20260502152103 | 58 | 43 | 6.1 | 7.0 | 0.00 | 0.00 | 0.00 | 42 | 1020.7 |
| 20260502151600 | 58 | 36 | 7.8 | 8.7 | 0.00 | 0.00 | 0.00 | 42 | 1020.6 |
| 20260502151057 | 57 | 34 | 7.8 | 9.6 | 0.00 | 0.00 | 0.00 | 43 | 1020.7 |
| 20260502150554 | 57 | 44 | 7.8 | 8.7 | 0.00 | 0.00 | 0.00 | 43 | 1020.5 |
| 20260502130439 | 49 | 331 | 5.2 | 6.1 | 0.00 | 0.00 | 0.00 | 52 | 1019.5 |
| 20260502123422 | 45 | 328 | 6.1 | 6.1 | 0.00 | 0.00 | 0.00 | 56 | 1019.1 |
| 20260502122919 | 45 | 325 | 4.3 | 5.2 | 0.00 | 0.00 | 0.00 | 58 | 1018.9 |
| 20260502122415 | 44 | 310 | 5.2 | 6.1 | 0.00 | 0.00 | 0.00 | 58 | 1018.9 |
| 20260502121914 | 45 | 328 | 5.2 | 6.1 | 0.00 | 0.00 | 0.00 | 58 | 1018.8 |
| 20260502121410 | 45 | 332 | 6.1 | 7.0 | 0.00 | 0.00 | 0.00 | 57 | 1018.8 |
| 20260502120908 | 44 | 336 | 5.2 | 7.0 | 0.00 | 0.00 | 0.00 | 57 | 1018.6 |
| 20260502120404 | 45 | 329 | 7.0 | 7.8 | 0.00 | 0.00 | 0.00 | 55 | 1018.6 |
| 20260502115901 | 44 | 323 | 4.3 | 5.2 | 0.00 | 0.00 | 0.00 | 56 | 1018.4 |
| 20260502115358 | 45 | 333 | 5.2 | 6.1 | 0.00 | 0.00 | 0.00 | 54 | 1018.5 |
| 20260502114854 | 44 | 337 | 7.0 | 7.0 | 0.00 | 0.00 | 0.00 | 54 | 1018.5 |
| 20260502114352 | 45 | 344 | 5.2 | 6.1 | 0.00 | 0.00 | 0.00 | 55 | 1018.6 |
| 20260502113848 | 46 | 332 | 5.2 | 7.0 | 0.00 | 0.00 | 0.00 | 51 | 1018.3 |
| 20260502113346 | 46 | 303 | 4.3 | 6.1 | 0.00 | 0.00 | 0.00 | 52 | 1018.3 |
| 20260502112844 | 45 | 321 | 3.5 | 3.5 | 0.00 | 0.00 | 0.00 | 53 | 1018.3 |
| 20260502112341 | 46 | 303 | 5.2 | 6.1 | 0.00 | 0.00 | 0.00 | 52 | 1018.0 |
| 20260502111839 | 46 | 308 | 5.2 | 6.1 | 0.00 | 0.00 | 0.00 | 52 | 1017.8 |
| 20260502111336 | 47 | 288 | 6.1 | 7.0 | 0.00 | 0.00 | 0.00 | 52 | 1018.0 |
| 20260502110834 | 47 | 302 | 5.2 | 6.1 | 0.00 | 0.00 | 0.00 | 51 | 1018.1 |
| 20260502110331 | 48 | 306 | 6.1 | 7.0 | 0.00 | 0.00 | 0.00 | 50 | 1017.9 |
| 20260502105828 | 49 | 288 | 10.4 | 11.3 | 0.00 | 0.00 | 0.00 | 49 | 1017.9 |
| 20260502105325 | 49 | 283 | 11.3 | 13.9 | 0.00 | 0.00 | 0.00 | 48 | 1017.8 |
| 20260502104823 | 49 | 294 | 8.7 | 8.7 | 0.00 | 0.00 | 0.00 | 48 | 1017.8 |
| 20260502104320 | 49 | 288 | 7.8 | 8.7 | 0.00 | 0.00 | 0.00 | 48 | 1017.8 |
| 20260502103818 | 50 | 277 | 8.7 | 8.7 | 0.00 | 0.00 | 0.00 | 47 | 1017.5 |
| 20260502103315 | 50 | 275 | 9.6 | 9.6 | 0.00 | 0.00 | 0.00 | 46 | 1017.4 |
| 20260502102812 | 50 | 292 | 7.8 | 8.7 | 0.00 | 0.00 | 0.00 | 46 | 1017.4 |
| 20260502102308 | 51 | 305 | 6.1 | 7.0 | 0.00 | 0.00 | 0.00 | 45 | 1017.3 |
| 20260502101806 | 50 | 290 | 6.1 | 7.8 | 0.00 | 0.00 | 0.00 | 45 | 1017.2 |
| 20260502101304 | 50 | 301 | 5.2 | 7.0 | 0.00 | 0.00 | 0.00 | 46 | 1017.2 |
| 20260502100802 | 51 | 300 | 3.5 | 5.2 | 0.00 | 0.00 | 0.00 | 45 | 1017.1 |
| 20260502100301 | 51 | 285 | 8.7 | 11.3 | 0.00 | 0.00 | 0.00 | 44 | 1017.2 |
| 20260502091235 | 42 | 219 | 0.0 | 0.9 | 0.00 | 0.00 | 0.00 | 53 | 1016.7 |
| 20260502090732 | 42 | 196 | 1.7 | 1.7 | 0.00 | 0.00 | 0.00 | 53 | 1016.6 |
| 20260502090229 | 40 | 175 | 0.9 | 1.7 | 0.00 | 0.00 | 0.00 | 54 | 1016.7 |
| 20260502071130 | 54 | 285 | 5.2 | 6.1 | 0.00 | 0.00 | 0.00 | 36 | 1016.3 |
| 20260502070627 | 54 | 284 | 6.1 | 7.0 | 0.00 | 0.00 | 0.00 | 36 | 1016.4 |
| 20260502070125 | 54 | 283 | 6.1 | 7.0 | 0.00 | 0.00 | 0.00 | 36 | 1016.3 |
| 20260502065623 | 53 | 290 | 5.2 | 7.0 | 0.00 | 0.00 | 0.00 | 36 | 1016.3 |
| 20260502065120 | 52 | 283 | 2.6 | 2.6 | 0.00 | 0.00 | 0.00 | 37 | 1016.1 |
| 20260502064619 | 53 | 284 | 4.3 | 5.2 | 0.00 | 0.00 | 0.00 | 36 | 1016.4 |
| 20260502064116 | 53 | 290 | 4.3 | 5.2 | 0.00 | 0.00 | 0.00 | 36 | 1016.4 |
| 20260502063614 | 53 | 295 | 4.3 | 5.2 | 0.00 | 0.00 | 0.00 | 36 | 1016.2 |
| 20260502063111 | 52 | 285 | 5.2 | 6.1 | 0.00 | 0.00 | 0.00 | 37 | 1016.2 |
| 20260502062608 | 51 | 294 | 4.3 | 5.2 | 0.00 | 0.00 | 0.00 | 39 | 1016.3 |
| 20260502062106 | 50 | 265 | 0.9 | 1.7 | 0.00 | 0.00 | 0.00 | 39 | 1016.2 |
| 20260502061604 | 49 | 255 | 1.7 | 1.7 | 0.00 | 0.00 | 0.00 | 40 | 1016.2 |
| 20260502061102 | 50 | 274 | 2.6 | 2.6 | 0.00 | 0.00 | 0.00 | 40 | 1016.4 |
| 20260502060601 | 50 | 277 | 1.7 | 2.6 | 0.00 | 0.00 | 0.00 | 39 | 1016.3 |
| 20260502060059 | 50 | 266 | 2.6 | 3.5 | 0.00 | 0.00 | 0.00 | 38 | 1016.2 |
| 20260502055556 | 51 | 249 | 0.9 | 0.9 | 0.00 | 0.00 | 0.00 | 38 | 1016.1 |
| 20260502055054 | 53 | 282 | 1.7 | 2.6 | 0.00 | 0.00 | 0.00 | 36 | 1016.2 |
| 20260502054553 | 52 | 285 | 2.6 | 3.5 | 0.00 | 0.00 | 0.00 | 37 | 1016.1 |
| 20260502054049 | 53 | 262 | 3.5 | 3.5 | 0.00 | 0.00 | 0.00 | 36 | 1016.0 |
| 20260502053547 | 53 | 255 | 2.6 | 2.6 | 0.00 | 0.00 | 0.00 | 35 | 1016.1 |
| 20260502053044 | 54 | 276 | 1.7 | 2.6 | 0.00 | 0.00 | 0.00 | 35 | 1015.9 |
| 20260502052543 | 55 | 248 | 1.7 | 2.6 | 0.00 | 0.00 | 0.00 | 34 | 1015.9 |
| 20260502052040 | 55 | 260 | 1.7 | 2.6 | 0.00 | 0.00 | 0.00 | 34 | 1016.0 |
| 20260502051538 | 55 | 270 | 1.7 | 2.6 | 0.00 | 0.00 | 0.00 | 33 | 1015.9 |
| 20260502051036 | 53 | 281 | 0.9 | 1.7 | 0.00 | 0.00 | 0.00 | 36 | 1015.7 |
| 20260502050531 | 56 | 249 | 1.7 | 2.6 | 0.00 | 0.00 | 0.00 | 32 | 1015.9 |
| 20260502050029 | 56 | 275 | 2.6 | 3.5 | 0.00 | 0.00 | 0.00 | 32 | 1015.8 |
| 20260502045525 | 57 | 281 | 3.5 | 3.5 | 0.00 | 0.00 | 0.00 | 31 | 1015.8 |
| 20260502045023 | 58 | 280 | 2.6 | 2.6 | 0.00 | 0.00 | 0.00 | 30 | 1015.7 |
| 20260502044519 | 59 | 299 | 3.5 | 5.2 | 0.00 | 0.00 | 0.00 | 28 | 1015.9 |
| 20260502044016 | 59 | 283 | 4.3 | 5.2 | 0.00 | 0.00 | 0.00 | 28 | 1015.8 |
| 20260502043513 | 59 | 281 | 3.5 | 5.2 | 0.00 | 0.00 | 0.00 | 29 | 1015.6 |
| 20260502043009 | 59 | 257 | 4.3 | 5.2 | 0.00 | 0.00 | 0.00 | 28 | 1015.7 |
| 20260502042504 | 59 | 268 | 3.5 | 3.5 | 0.00 | 0.00 | 0.00 | 28 | 1015.6 |
| 20260502042002 | 60 | 256 | 3.5 | 6.1 | 0.00 | 0.00 | 0.00 | 27 | 1015.7 |
| 20260502041500 | 60 | 282 | 5.2 | 6.1 | 0.00 | 0.00 | 0.00 | 27 | 1015.7 |
| 20260502040956 | 60 | 272 | 4.3 | 5.2 | 0.00 | 0.00 | 0.00 | 26 | 1015.7 |
| 20260502040453 | 61 | 277 | 3.5 | 5.2 | 0.00 | 0.00 | 0.00 | 26 | 1015.7 |
| 20260502035949 | 60 | 270 | 2.6 | 3.5 | 0.00 | 0.00 | 0.00 | 26 | 1015.6 |
| 20260502035445 | 61 | 291 | 3.5 | 3.5 | 0.00 | 0.00 | 0.00 | 26 | 1015.7 |
| 20260502034944 | 61 | 294 | 4.3 | 6.1 | 0.00 | 0.00 | 0.00 | 25 | 1015.5 |
| 20260502034442 | 62 | 289 | 5.2 | 5.2 | 0.00 | 0.00 | 0.00 | 25 | 1015.6 |
| 20260502033940 | 63 | 282 | 5.2 | 6.1 | 0.00 | 0.00 | 0.00 | 24 | 1015.5 |
| 20260502033437 | 63 | 275 | 5.2 | 6.1 | 0.00 | 0.00 | 0.00 | 24 | 1015.6 |
| 20260502032934 | 63 | 275 | 6.1 | 7.0 | 0.00 | 0.00 | 0.00 | 23 | 1015.4 |
| 20260502032430 | 63 | 297 | 7.0 | 7.8 | 0.00 | 0.00 | 0.00 | 23 | 1015.6 |
| 20260502031927 | 64 | 279 | 6.1 | 7.0 | 0.00 | 0.00 | 0.00 | 23 | 1015.4 |
| 20260502031426 | 64 | 290 | 6.1 | 7.0 | 0.00 | 0.00 | 0.00 | 23 | 1015.4 |
| 20260502030924 | 64 | 290 | 5.2 | 7.0 | 0.00 | 0.00 | 0.00 | 24 | 1015.1 |
| 20260502030422 | 64 | 290 | 6.1 | 7.0 | 0.00 | 0.00 | 0.00 | 23 | 1015.1 |
| 20260502025920 | 63 | 290 | 2.6 | 2.6 | 0.00 | 0.00 | 0.00 | 24 | 1015.1 |
| 20260502025416 | 62 | 273 | 1.7 | 1.7 | 0.00 | 0.00 | 0.00 | 25 | 1015.0 |
| 20260502024914 | 62 | 288 | 2.6 | 2.6 | 0.00 | 0.00 | 0.00 | 25 | 1014.9 |
| 20260502024412 | 63 | 270 | 1.7 | 2.6 | 0.00 | 0.00 | 0.00 | 25 | 1015.0 |
| 20260502023910 | 63 | 277 | 1.7 | 1.7 | 0.00 | 0.00 | 0.00 | 25 | 1014.8 |
| 20260502023407 | 64 | 287 | 2.6 | 3.5 | 0.00 | 0.00 | 0.00 | 25 | 1014.9 |
| 20260502022905 | 64 | 288 | 2.6 | 2.6 | 0.00 | 0.00 | 0.00 | 25 | 1014.9 |
| 20260502022400 | 64 | 265 | 1.7 | 2.6 | 0.00 | 0.00 | 0.00 | 25 | 1014.8 |
| 20260502021857 | 65 | 274 | 1.7 | 2.6 | 0.00 | 0.00 | 0.00 | 25 | 1014.9 |
| 20260502021355 | 65 | 284 | 1.7 | 2.6 | 0.00 | 0.00 | 0.00 | 25 | 1014.8 |
| 20260502020852 | 66 | 288 | 1.7 | 1.7 | 0.00 | 0.00 | 0.00 | 25 | 1014.7 |
| 20260502020350 | 67 | 293 | 1.7 | 1.7 | 0.00 | 0.00 | 0.00 | 24 | 1014.8 |
| 20260502015847 | 68 | 289 | 1.7 | 1.7 | 0.00 | 0.00 | 0.00 | 23 | 1014.9 |
| 20260502015344 | 70 | 311 | 0.9 | 1.7 | 0.00 | 0.00 | 0.00 | 22 | 1014.7 |
| 20260502014841 | 70 | 254 | 2.6 | 3.5 | 0.00 | 0.00 | 0.00 | 21 | 1014.7 |
| 20260502014338 | 70 | 276 | 1.7 | 2.6 | 0.00 | 0.00 | 0.00 | 23 | 1014.9 |